DELTA 1 DEB, 10711

Orbit data source: Space-Track

DELTA 1 DEB, 10711 is space debris in SSO originally from a launch on Thu, 29 Jul 1976 UTC launched from the Air Force Western Test Range (AFWTR). Debris objects in space refer to the collection of defunct objects orbiting the Earth. Examples of debris include non-operational satellites, rocket bodies, and fragments generated from explosions, collisions, or faulty payload assembly.

Loading next visibility...
Identifier
10711, 1976-077AG
Orbit
SSO
Last TLE update
12 hours ago
Origin
Manufacturer
Unknown
Mission
Spacecraft
Bus & Motor
Unknown
Mass
Unknown
Launch date (UTC)
1976-07-29 (49 years ago)
Launch vehicle
Unknown
Launch site
Air Force Western Test Range (AFWTR)
Object type
Payload
Rocket body
Debris
Shape & HBR
Unknown
Radar Cross Section
Small (<0.1 m²)

Expand to show TLE details & history

TLE from 12 hours ago
0 DELTA 1 DEB
1 10711U 76077AG  25181.87232814 -.00000040  00000-0  48304-4 0  9997
2 10711 102.4446 160.4381 0063541 343.1006  44.6547 12.29240036195567
Epoch: 2025-06-30T20:56Z
TLE epoch observation values (Epoch: 2025-06-30T20:56:09.151Z)
Latitude
27.58835°
Longitude
-79.36506°
Altitude
1,519.894 km
Speed
7.124 km/s
True Right ascension
10h 15m 23s
True Declination
27° 27' 40"
Sunlit
Object was in daylight at epoch
Visualization orbit readout
Latitude
77.52643°
Longitude
-169.16716°
Altitude
1,581.862 km
Speed
7.077 km/s
Apparent Right ascension
07h 35m 37s
Apparent Declination
32° 15' 35"
Sunlit
Object is in daylight
Visualization observer readout
Local Sidereal Time
20:38:02
Azimuth
13.716° NNE
Elevation
-16.391°
Doppler factor
1
Orbital elements
Apogee altitude
1,600.541 km
Perigee altitude
1,499.786 km
Semi-major axis
7,928.301 km
Eccentricity
0.00635
Inclination
102.4446°
RAAN
160.4381°
Arg. of periapsis
343.1006°
True anomaly
Unknown
Mean anomaly
44.6547°
Eccentric anomaly
Unknown
Mean motion
3.07449 °/min
Orbital period
117.09 mins
BSTAR
0.000048304
Loading maneuver chart data...
Loading SW <> Apogee altitude chart data...
Loading historical data...
Loading historical data...
Loading historical data...
Loading historical data...
Loading historical data...
Loading historical data...
Loading historical data...

DELTA 1 DEB Visibility forecast

Observer location: undefined°, undefined°

Span
Click to sort rows by Start time (UTC) header in descending order
Start Az.
Max El. time (UTC)
Max El. Az.
Max El.
End time (UTC)
End Az.
17 mins2025-07-01 11:04:50.013Z25.918° NE2025-07-01 11:12:50.013Z93.223° ESE40.683°2025-07-01 11:21:50.013Z182.625° SSW
13 mins2025-07-01 13:01:50.013Z355.188° N2025-07-01 13:07:50.013Z299.603° NW29.855°2025-07-01 13:14:50.013Z244.19° WSW
10 mins2025-07-01 20:25:50.013Z85.816° E2025-07-01 20:29:50.013Z52.723° ENE20.844°2025-07-01 20:35:50.013Z6.705° NNE
15 mins2025-07-01 22:16:50.013Z159.808° S2025-07-01 22:23:50.013Z306.118° NW44.995°2025-07-01 22:31:50.013Z341.682° N
9 mins2025-07-02 00:15:50.013Z238.796° WSW2025-07-02 00:19:50.013Z270.067° WNW16.799°2025-07-02 00:24:50.013Z306.605° NW
|